Regional Weather Roundup
Issued by NWS

Home | Current Version | Previous Version | Graphics & Text | Print | Product List | Glossary On
Versions: 1 2 3 4 5 6 7 8 9 10 11 12 13 14 15 16 17 18 19 20 21 22 23 24 25 26 27 28 29 30 31 32 33 34 35 36 37 38 39 40 41 42 43 44 45 46 47 48 49
000
ASUS45 KBOU 231907
RWRCO

WEATHER ROUNDUP FOR COLORADO
NATIONAL WEATHER SERVICE DENVER/BOULDER CO
100 PM MDT TUE SEP 23 2014

NOTE: "FAIR" INDICATES FEW OR NO CLOUDS BELOW 12000 FEET WITH NO
SIGNIFICANT WEATHER AND/OR OBSTRUCTIONS TO VISIBILITY.

COZ001>005-013-030-031-232000-
...NORTHWEST COLORADO...

CITY           SKY/WX    TMP DP  RH WIND       PRES   REMARKS
CRAIG          PTSUNNY   71  47  42 W13G20    30.26F
HAYDEN         PTSUNNY   66  43  42 W16       30.28S
MEEKER         PTSUNNY   72  47  40 NW14G21   30.28F
MOUNT WERNER   NOT AVBL
STEAMBOAT SPGS CLOUDY    63  46  54 W14       30.29F
WALDEN         CLOUDY    55  39  54 W6        30.36R
$$

COZ006>008-011-232000-
...WEST CENTRAL VALLEYS...

CITY           SKY/WX    TMP DP  RH WIND       PRES   REMARKS
GRAND JUNCTION SUNNY     77  51  40 VRB3      30.19F
MONTROSE       MOSUNNY   76  48  37 CALM      30.27F
EAGLE          PTSUNNY   66  50  55 W10       30.30F
RIFLE          PTSUNNY   70  51  51 VRB3      30.23F
DELTA          MOSUNNY   76  52  42 SW3       30.23F HAZE
NUCLA          MOSUNNY   73  41  31 NW3       30.31F
$$

COZ017>023-064>068-232000-
...SOUTHWEST COLORADO...

CITY           SKY/WX    TMP DP  RH WIND       PRES   REMARKS
DURANGO        SUNNY     73  43  33 SW8G17    30.30F
CORTEZ         SUNNY     78  38  23 W9        30.28F
PAGOSA SPRINGS MOSUNNY   69  37  31 W3        30.36F
TELLURIDE      NOT AVBL
WOLF CREEK PAS PTSUNNY   48  37  66 SW10G21   30.62S
$$

COZ009-010-012-014-032>034-037-058>063-232000-
...CENTRAL COLORADO...

CITY           SKY/WX    TMP DP  RH WIND       PRES   REMARKS
ASPEN          PTSUNNY   66  42  41 N6        30.36F
BUENA VISTA    MOSUNNY   66  39  37 SE6       30.33F
COPPER MTN     CLOUDY    46  34  61 W17G25    30.59S
BERTHOUD PASS  DRIZZLE   34  34 100 NW28G38   30.57R WCI  20
COTTONWOOD PAS MOSUNNY   61  32  33 W17G26    30.45F
GUNNISON       PTSUNNY   63  46  55 CALM      30.38F
KREMMLING      PTSUNNY   64  45  48 W16       30.33S
LEADVILLE      CLOUDY    56  31  38 NW10G21   30.46S
MONARCH PASS   CLOUDY    45  37  76 W36G46    30.67F
SALIDA         PTSUNNY   71  39  31 W10       30.37F
SUNLIGHT       PTSUNNY   55  43  62 W5        30.56S
WILKERSON PASS NOT AVBL
$$

COZ069>075-232000-
...SAN LUIS VALLEY/SANGRE DE CRISTO MOUNTAINS...

CITY           SKY/WX    TMP DP  RH WIND       PRES   REMARKS
ALAMOSA        SUNNY     71  32  23 NW10      30.33F
LA VETA PASS   MOSUNNY   61  34  36 S5        30.49S
SAGUACHE       NOT AVBL
$$

COZ035-036-038>040-232000-
...NORTHERN COLORADO FRONT RANGE...

CITY           SKY/WX    TMP DP  RH WIND       PRES   REMARKS
DENVER INTL AP PTSUNNY   79  42  26 NW7       30.14S
DMNS CITY PARK   N/A     81  43  25 N3        30.12F
AURORA         MOSUNNY   78  44  30 NW12      30.16S
FRONT RANGE AP PTSUNNY   79  43  27 N5        30.15S
ERIE MUNI ARPT NOT AVBL
BOULDER MUN AP PTSUNNY   77  39  25 W20G29    30.11F
CENTENNIAL     PTSUNNY   77  41  27 N8        30.16S
BROOMFIELD     NOT AVBL
FORT COLLINS   MOSUNNY   79  45  29 S3        30.11F
LONGMONT       MOSUNNY   83  43  24 CALM      30.11F
$$

COZ041-046-047-076>085-087-088-232000-
...PIKES PEAK/PALMER DIVIDE AND SOUTHERN FOOTHILLS...

CITY           SKY/WX    TMP DP  RH WIND       PRES   REMARKS
COLO. SPRINGS  MOSUNNY   81  32  17 W13       30.18F
A. F. ACADEMY  MOSUNNY   77  33  20 W16       30.20S
ELLICOTT       NOT AVBL
FALCON         MOSUNNY   74  29  18 W7G18     30.23F
FORT CARSON    MOSUNNY   79  36  21 SE8       30.16F
LIMON          SUNNY     78  41  26 NW5       30.13F
MONUMENT HILL  MOSUNNY   73  32  21 NW12G17   30.23S
TRINIDAD       SUNNY     82  36  19 W12       30.17F
$$

COZ042>045-048>051-090-091-232000-
...NORTHEAST COLORADO...

CITY           SKY/WX    TMP DP  RH WIND       PRES   REMARKS
GREELEY ARPT   MOSUNNY   81  45  28 S9        30.11F
AKRON          PTSUNNY   77  49  37 NW12      30.10F
BURLINGTON     SUNNY     80  49  33 CALM      30.08F
WRAY           SUNNY     86  47  26 W9G18     30.03F
STERLING       PTSUNNY   82  46  28 W15G22    30.03F
HOLYOKE        SUNNY     84  45  24 W9G18     30.02S
FORT MORGAN    CLOUDY    76  43  30 SW8       30.10S
$$

COZ086-089-092>099-232000-
...SOUTHEAST COLORADO...

CITY           SKY/WX    TMP DP  RH WIND       PRES   REMARKS
PUEBLO         MOSUNNY   87  36  16 W17       30.07F
LA JUNTA       SUNNY     84  48  28 VRB3      30.07F
LAMAR          SUNNY     84  51  31 E5        30.03F
SPRINGFIELD      N/A     85  46  25 VRB3      30.08F
$$


USA.gov is the U.S. government's official web portal to all federal, state and local government web resources and services.